Time,TemperatureF,DewpointF,PressureIn,WindDirection,WindDirectionDegrees,WindSpeedMPH,WindSpeedGustMPH,Humidity,HourlyPrecipIn,Conditions,Clouds,dailyrainin,SoftwareType,DateUTC
2014-07-29 00:01:00,59.4,14.6,29.12,North,0,0.0,0.0,17,0.00,,,0.00,VWS V14.01,2014-07-29 04:01:00,
2014-07-29 00:06:00,59.2,14.4,29.12,NNW,338,0.0,0.0,17,0.00,,,0.00,VWS V14.01,2014-07-29 04:06:00,
2014-07-29 00:11:00,58.8,14.1,29.12,NW,315,0.0,0.0,17,0.00,,,0.00,VWS V14.01,2014-07-29 04:11:00,
2014-07-29 00:16:00,58.5,13.8,29.09,NW,315,0.0,0.0,17,0.00,,,0.00,VWS V14.01,2014-07-29 04:16:00,
2014-07-29 00:21:00,58.1,13.5,29.09,NW,315,0.0,0.0,17,0.00,,,0.00,VWS V14.01,2014-07-29 04:21:00,
2014-07-29 00:26:00,57.9,13.4,29.09,NW,315,0.0,0.0,17,0.00,,,0.00,VWS V14.01,2014-07-29 04:26:00,
2014-07-29 00:31:00,57.7,13.2,29.12,NW,315,0.0,0.0,17,0.00,,,0.00,VWS V14.01,2014-07-29 04:31:00,
2014-07-29 00:36:00,57.6,13.1,29.12,NW,315,0.0,0.0,17,0.00,,,0.00,VWS V14.01,2014-07-29 04:36:00,
2014-07-29 00:41:00,57.2,12.8,29.12,NW,315,0.0,0.0,17,0.00,,,0.00,VWS V14.01,2014-07-29 04:41:00,
2014-07-29 00:46:00,57.0,12.7,29.12,NW,315,0.0,0.0,17,0.00,,,0.00,VWS V14.01,2014-07-29 04:46:00,
2014-07-29 00:51:00,56.8,12.5,29.12,NW,315,0.0,0.0,17,0.00,,,0.00,VWS V14.01,2014-07-29 04:51:00,
2014-07-29 00:56:00,56.7,12.4,29.12,NW,315,0.0,0.0,17,0.00,,,0.00,VWS V14.01,2014-07-29 04:56:00,
2014-07-29 01:01:00,56.7,12.4,29.09,NW,315,0.0,0.0,17,0.00,,,0.00,VWS V14.01,2014-07-29 05:01:00,
2014-07-29 01:06:00,56.5,12.2,29.09,NW,315,0.0,0.0,17,0.00,,,0.00,VWS V14.01,2014-07-29 05:06:00,
2014-07-29 01:11:00,56.5,12.2,29.09,WNW,292,0.0,0.0,17,0.00,,,0.00,VWS V14.01,2014-07-29 05:11:00,
2014-07-29 01:16:00,56.7,12.4,29.12,West,270,0.0,0.0,17,0.00,,,0.00,VWS V14.01,2014-07-29 05:16:00,
2014-07-29 01:21:00,56.7,12.4,29.12,WNW,292,0.0,0.0,17,0.00,,,0.00,VWS V14.01,2014-07-29 05:21:00,
2014-07-29 01:26:00,56.5,12.2,29.12,WNW,292,0.0,0.0,17,0.00,,,0.00,VWS V14.01,2014-07-29 05:26:00,
2014-07-29 01:31:00,56.3,12.1,29.12,WNW,292,0.0,0.0,17,0.00,,,0.00,VWS V14.01,2014-07-29 05:31:00,
2014-07-29 01:36:00,56.1,11.9,29.12,WNW,292,0.0,0.0,17,0.00,,,0.00,VWS V14.01,2014-07-29 05:36:00,
2014-07-29 01:41:00,55.9,11.8,29.12,WNW,292,0.0,0.0,17,0.00,,,0.00,VWS V14.01,2014-07-29 05:41:00,
2014-07-29 01:46:00,55.9,11.8,29.12,WNW,292,0.0,0.0,17,0.00,,,0.00,VWS V14.01,2014-07-29 05:46:00,
2014-07-29 01:51:00,55.8,11.6,29.12,WNW,292,0.0,0.0,17,0.00,,,0.00,VWS V14.01,2014-07-29 05:51:00,
2014-07-29 01:56:00,55.6,11.5,29.12,WNW,292,0.0,0.0,17,0.00,,,0.00,VWS V14.01,2014-07-29 05:56:00,
2014-07-29 02:01:00,55.8,11.6,29.12,WNW,292,0.0,0.0,17,0.00,,,0.00,VWS V14.01,2014-07-29 06:01:00,
2014-07-29 02:06:00,55.8,11.6,29.12,WNW,292,0.0,0.0,17,0.00,,,0.00,VWS V14.01,2014-07-29 06:06:00,
2014-07-29 02:11:00,55.6,11.5,29.12,WNW,292,0.0,0.0,17,0.00,,,0.00,VWS V14.01,2014-07-29 06:11:00,
2014-07-29 02:16:00,55.4,15.0,29.12,WNW,292,0.0,0.0,20,0.00,,,0.00,VWS V14.01,2014-07-29 06:16:00,
2014-07-29 02:21:00,55.2,14.9,29.12,WNW,292,0.0,0.0,20,0.00,,,0.00,VWS V14.01,2014-07-29 06:21:00,
2014-07-29 02:26:00,55.2,14.9,29.12,WNW,292,0.0,0.0,20,0.00,,,0.00,VWS V14.01,2014-07-29 06:26:00,
2014-07-29 02:31:00,55.0,14.7,29.12,WNW,292,0.0,0.0,20,0.00,,,0.00,VWS V14.01,2014-07-29 06:31:00,
2014-07-29 02:36:00,55.2,14.9,29.12,WNW,292,0.0,0.0,20,0.00,,,0.00,VWS V14.01,2014-07-29 06:36:00,
2014-07-29 02:41:00,54.9,14.6,29.12,WNW,292,0.0,0.0,20,0.00,,,0.00,VWS V14.01,2014-07-29 06:41:00,
2014-07-29 02:46:00,54.7,14.4,29.12,WNW,292,0.0,0.0,20,0.00,,,0.00,VWS V14.01,2014-07-29 06:46:00,
2014-07-29 02:51:00,54.7,14.4,29.12,WNW,292,0.0,0.0,20,0.00,,,0.00,VWS V14.01,2014-07-29 06:51:00,
2014-07-29 02:56:00,54.5,14.3,29.12,WNW,292,0.0,0.0,20,0.00,,,0.00,VWS V14.01,2014-07-29 06:56:00,
2014-07-29 03:01:00,54.3,14.1,29.12,WNW,292,0.0,0.0,20,0.00,,,0.00,VWS V14.01,2014-07-29 07:01:00,
2014-07-29 03:06:00,54.3,14.1,29.12,WNW,292,0.0,0.0,20,0.00,,,0.00,VWS V14.01,2014-07-29 07:06:00,
2014-07-29 03:11:00,54.0,13.8,29.12,WNW,292,0.0,0.0,20,0.00,,,0.00,VWS V14.01,2014-07-29 07:11:00,
2014-07-29 03:16:00,54.0,13.8,29.09,ESE,112,0.0,0.0,20,0.00,,,0.00,VWS V14.01,2014-07-29 07:16:00,
2014-07-29 03:21:00,53.8,16.9,29.09,ESE,112,0.0,0.0,23,0.00,,,0.00,VWS V14.01,2014-07-29 07:21:00,
2014-07-29 03:26:00,53.6,16.7,29.09,ESE,112,0.0,0.0,23,0.00,,,0.00,VWS V14.01,2014-07-29 07:26:00,
2014-07-29 03:31:00,53.4,16.6,29.09,ESE,112,0.0,0.0,23,0.00,,,0.00,VWS V14.01,2014-07-29 07:31:00,
2014-07-29 03:36:00,53.2,16.4,29.09,ESE,112,0.0,0.0,23,0.00,,,0.00,VWS V14.01,2014-07-29 07:36:00,
2014-07-29 03:41:00,53.1,16.3,29.09,ESE,112,0.0,0.0,23,0.00,,,0.00,VWS V14.01,2014-07-29 07:41:00,
2014-07-29 03:46:00,53.1,19.1,29.09,East,90,0.0,0.0,26,0.00,,,0.00,VWS V14.01,2014-07-29 07:46:00,
2014-07-29 03:51:00,53.1,19.1,29.09,SSE,158,0.0,0.0,26,0.00,,,0.00,VWS V14.01,2014-07-29 07:51:00,
2014-07-29 03:56:00,52.9,19.0,29.09,SSW,202,0.0,0.0,26,0.00,,,0.00,VWS V14.01,2014-07-29 07:56:00,
2014-07-29 04:01:00,53.1,19.1,29.09,SSE,158,0.0,0.0,26,0.00,,,0.00,VWS V14.01,2014-07-29 08:01:00,
2014-07-29 04:06:00,52.9,19.0,29.09,SSE,158,0.0,0.0,26,0.00,,,0.00,VWS V14.01,2014-07-29 08:06:00,
2014-07-29 04:11:00,53.1,19.1,29.09,West,270,0.0,0.0,26,0.00,,,0.00,VWS V14.01,2014-07-29 08:11:00,
2014-07-29 04:16:00,53.1,19.1,29.09,West,270,0.0,0.0,26,0.00,,,0.00,VWS V14.01,2014-07-29 08:16:00,
2014-07-29 04:21:00,52.9,19.0,29.09,West,270,0.0,0.0,26,0.00,,,0.00,VWS V14.01,2014-07-29 08:21:00,
2014-07-29 04:26:00,52.9,19.0,29.09,West,270,0.0,0.0,26,0.00,,,0.00,VWS V14.01,2014-07-29 08:26:00,
2014-07-29 04:31:00,52.7,18.8,29.09,West,270,0.0,0.0,26,0.00,,,0.00,VWS V14.01,2014-07-29 08:31:00,
2014-07-29 04:36:00,52.7,18.8,29.09,West,270,0.0,0.0,26,0.00,,,0.00,VWS V14.01,2014-07-29 08:36:00,
2014-07-29 04:41:00,52.5,18.6,29.09,West,270,0.0,0.0,26,0.00,,,0.00,VWS V14.01,2014-07-29 08:41:00,
2014-07-29 04:46:00,52.5,18.6,29.09,SE,135,0.0,0.0,26,0.00,,,0.00,VWS V14.01,2014-07-29 08:46:00,
2014-07-29 04:51:00,52.3,18.5,29.09,WSW,248,0.0,0.0,26,0.00,,,0.00,VWS V14.01,2014-07-29 08:51:00,
2014-07-29 04:56:00,52.3,18.5,29.09,SE,135,0.0,0.0,26,0.00,,,0.00,VWS V14.01,2014-07-29 08:56:00,
2014-07-29 05:01:00,52.2,18.3,29.09,SSW,202,0.0,0.0,26,0.00,,,0.00,VWS V14.01,2014-07-29 09:01:00,
2014-07-29 05:06:00,52.2,19.2,29.09,WSW,248,0.0,0.0,27,0.00,,,0.00,VWS V14.01,2014-07-29 09:06:00,
2014-07-29 05:11:00,52.2,19.2,29.09,WSW,248,0.0,0.0,27,0.00,,,0.00,VWS V14.01,2014-07-29 09:11:00,
2014-07-29 05:16:00,52.0,19.1,29.09,WSW,248,0.0,0.0,27,0.00,,,0.00,VWS V14.01,2014-07-29 09:16:00,
2014-07-29 05:21:00,52.0,19.1,29.09,WSW,248,0.0,0.0,27,0.00,,,0.00,VWS V14.01,2014-07-29 09:21:00,
2014-07-29 05:26:00,52.0,19.1,29.09,WSW,248,0.0,0.0,27,0.00,,,0.00,VWS V14.01,2014-07-29 09:26:00,
2014-07-29 05:31:00,51.8,18.9,29.09,WSW,248,0.0,0.0,27,0.00,,,0.00,VWS V14.01,2014-07-29 09:31:00,
2014-07-29 05:36:00,51.8,18.9,29.09,WSW,248,0.0,0.0,27,0.00,,,0.00,VWS V14.01,2014-07-29 09:36:00,
2014-07-29 05:41:00,51.8,18.9,29.09,WSW,248,0.0,0.0,27,0.00,,,0.00,VWS V14.01,2014-07-29 09:41:00,
2014-07-29 05:46:00,51.6,18.8,29.09,WSW,248,0.0,0.0,27,0.00,,,0.00,VWS V14.01,2014-07-29 09:46:00,
2014-07-29 05:51:00,51.6,19.6,29.09,WSW,248,0.0,0.0,28,0.00,,,0.00,VWS V14.01,2014-07-29 09:51:00,
2014-07-29 05:56:00,51.6,19.6,29.09,WSW,248,0.0,0.0,28,0.00,,,0.00,VWS V14.01,2014-07-29 09:56:00,
2014-07-29 06:01:00,51.6,19.6,29.12,WSW,248,0.0,0.0,28,0.00,,,0.00,VWS V14.01,2014-07-29 10:01:00,
2014-07-29 06:06:00,51.6,19.6,29.12,WSW,248,0.0,0.0,28,0.00,,,0.00,VWS V14.01,2014-07-29 10:06:00,
2014-07-29 06:11:00,51.6,19.6,29.12,WSW,248,0.0,0.0,28,0.00,,,0.00,VWS V14.01,2014-07-29 10:11:00,
2014-07-29 06:16:00,51.4,19.4,29.12,WSW,248,0.0,0.0,28,0.00,,,0.00,VWS V14.01,2014-07-29 10:16:00,
2014-07-29 06:21:00,51.4,19.4,29.12,WSW,248,0.0,0.0,28,0.00,,,0.00,VWS V14.01,2014-07-29 10:21:00,
2014-07-29 06:26:00,51.4,19.4,29.12,WSW,248,0.0,0.0,28,0.00,,,0.00,VWS V14.01,2014-07-29 10:26:00,
2014-07-29 06:31:00,51.4,19.4,29.12,WSW,248,0.0,0.0,28,0.00,,,0.00,VWS V14.01,2014-07-29 10:31:00,
2014-07-29 06:36:00,51.4,19.4,29.12,WSW,248,0.0,0.0,28,0.00,,,0.00,VWS V14.01,2014-07-29 10:36:00,
2014-07-29 06:41:00,51.4,20.3,29.12,SSW,202,0.0,0.0,29,0.00,,,0.00,VWS V14.01,2014-07-29 10:41:00,
2014-07-29 06:46:00,51.4,20.3,29.12,SSW,202,0.0,0.0,29,0.00,,,0.00,VWS V14.01,2014-07-29 10:46:00,
2014-07-29 06:50:00,51.4,20.3,29.12,SSW,202,0.0,0.0,29,0.00,,,0.00,VWS V14.01,2014-07-29 10:50:00,
2014-07-29 06:55:00,51.4,20.3,29.12,SSW,202,0.0,0.0,29,0.00,,,0.00,VWS V14.01,2014-07-29 10:55:00,
2014-07-29 07:00:00,51.4,20.3,29.12,SSW,202,0.0,0.0,29,0.00,,,0.00,VWS V14.01,2014-07-29 11:00:00,
2014-07-29 07:05:00,51.6,20.4,29.12,WSW,248,0.0,0.0,29,0.00,,,0.00,VWS V14.01,2014-07-29 11:05:00,
2014-07-29 07:10:00,51.8,20.6,29.12,WSW,248,0.0,0.0,29,0.00,,,0.00,VWS V14.01,2014-07-29 11:10:00,
2014-07-29 07:15:00,52.2,20.1,29.12,WSW,248,0.0,0.0,28,0.00,,,0.00,VWS V14.01,2014-07-29 11:15:00,
2014-07-29 07:20:00,52.5,20.4,29.12,WSW,248,0.0,0.0,28,0.00,,,0.00,VWS V14.01,2014-07-29 11:20:00,
2014-07-29 07:25:00,52.7,20.5,29.12,WSW,248,0.0,0.0,28,0.00,,,0.00,VWS V14.01,2014-07-29 11:25:00,
2014-07-29 07:30:00,53.1,21.7,29.12,WSW,248,0.0,0.0,29,0.00,,,0.00,VWS V14.01,2014-07-29 11:30:00,
2014-07-29 07:35:00,53.2,21.8,29.12,WSW,248,0.0,0.0,29,0.00,,,0.00,VWS V14.01,2014-07-29 11:35:00,
2014-07-29 07:40:00,53.6,21.3,29.12,WNW,292,2.5,2.5,28,0.00,,,0.00,VWS V14.01,2014-07-29 11:40:00,
2014-07-29 07:45:00,54.0,21.6,29.14,South,180,1.6,1.6,28,0.00,,,0.00,VWS V14.01,2014-07-29 11:45:00,
2014-07-29 07:50:00,54.0,21.6,29.14,WNW,292,0.0,0.0,28,0.00,,,0.00,VWS V14.01,2014-07-29 11:50:00,
2014-07-29 07:55:00,54.5,22.1,29.14,SSW,202,0.0,0.0,28,0.00,,,0.00,VWS V14.01,2014-07-29 11:55:00,
2014-07-29 08:00:00,54.9,22.4,29.14,NW,315,2.5,2.5,28,0.00,,,0.00,VWS V14.01,2014-07-29 12:00:00,
2014-07-29 08:05:00,55.4,22.0,29.14,WNW,292,2.9,2.9,27,0.00,,,0.00,VWS V14.01,2014-07-29 12:05:00,
2014-07-29 08:10:00,55.9,22.5,29.14,NNW,338,1.6,1.6,27,0.00,,,0.00,VWS V14.01,2014-07-29 12:10:00,
2014-07-29 08:15:00,56.1,22.6,29.14,NNW,338,2.7,2.7,27,0.00,,,0.00,VWS V14.01,2014-07-29 12:15:00,
2014-07-29 08:20:00,56.5,22.0,29.14,North,0,1.3,2.2,26,0.00,,,0.00,VWS V14.01,2014-07-29 12:20:00,
2014-07-29 08:25:00,56.8,22.3,29.14,NNW,338,2.5,2.7,26,0.00,,,0.00,VWS V14.01,2014-07-29 12:25:00,
2014-07-29 08:30:00,57.0,22.5,29.14,WNW,292,0.0,0.0,26,0.00,,,0.00,VWS V14.01,2014-07-29 12:30:00,
2014-07-29 08:35:00,57.6,22.0,29.14,ESE,112,2.0,2.0,25,0.00,,,0.00,VWS V14.01,2014-07-29 12:35:00,
2014-07-29 08:40:00,57.4,21.9,29.14,NNE,22,2.5,2.5,25,0.00,,,0.00,VWS V14.01,2014-07-29 12:40:00,
2014-07-29 08:45:00,57.4,21.9,29.14,WNW,292,0.9,2.0,25,0.12,,,0.12,VWS V14.01,2014-07-29 12:45:00,
2014-07-29 08:50:00,57.9,22.3,29.14,WNW,292,1.3,2.0,25,0.12,,,0.12,VWS V14.01,2014-07-29 12:50:00,
2014-07-29 08:55:00,58.1,21.5,29.14,NW,315,2.0,2.7,24,0.12,,,0.12,VWS V14.01,2014-07-29 12:55:00,
2014-07-29 09:00:00,59.2,22.4,29.14,NW,315,2.0,2.0,24,0.12,,,0.12,VWS V14.01,2014-07-29 13:00:00,
2014-07-29 09:05:00,59.5,20.7,29.14,WNW,292,2.2,2.2,22,0.12,,,0.12,VWS V14.01,2014-07-29 13:05:00,
2014-07-29 09:10:00,59.7,20.8,29.14,NNW,338,0.0,2.2,22,0.12,,,0.12,VWS V14.01,2014-07-29 13:10:00,
2014-07-29 09:15:00,60.1,21.1,29.14,NE,45,2.2,2.5,22,0.12,,,0.12,VWS V14.01,2014-07-29 13:15:00,
2014-07-29 09:20:00,59.9,17.6,29.14,NE,45,1.6,1.6,19,0.12,,,0.12,VWS V14.01,2014-07-29 13:20:00,
2014-07-29 09:25:00,60.3,17.9,29.14,NNW,338,2.0,2.0,19,0.12,,,0.12,VWS V14.01,2014-07-29 13:25:00,
2014-07-29 09:30:00,61.2,18.6,29.14,WNW,292,2.7,2.7,19,0.12,,,0.12,VWS V14.01,2014-07-29 13:30:00,
2014-07-29 09:35:00,61.5,18.9,29.14,North,0,1.6,2.2,19,0.12,,,0.12,VWS V14.01,2014-07-29 13:35:00,
2014-07-29 09:40:00,62.2,19.5,29.14,NW,315,1.6,2.2,19,0.12,,,0.12,VWS V14.01,2014-07-29 13:40:00,
2014-07-29 09:45:00,62.4,19.6,29.17,NW,315,0.0,0.0,19,0.00,,,0.12,VWS V14.01,2014-07-29 13:45:00,
2014-07-29 09:50:00,64.2,19.9,29.17,ENE,68,0.0,0.0,18,0.00,,,0.12,VWS V14.01,2014-07-29 13:50:00,
2014-07-29 09:55:00,65.5,16.6,29.17,NE,45,4.9,4.9,15,0.00,,,0.12,VWS V14.01,2014-07-29 13:55:00,
2014-07-29 10:00:00,63.7,16.7,29.14,NNW,338,0.0,1.1,16,0.00,,,0.12,VWS V14.01,2014-07-29 14:00:00,
2014-07-29 10:05:00,63.1,16.2,29.14,North,0,1.6,2.5,16,0.00,,,0.12,VWS V14.01,2014-07-29 14:05:00,
2014-07-29 10:10:00,64.4,15.8,29.14,NE,45,2.0,2.0,15,0.00,,,0.12,VWS V14.01,2014-07-29 14:10:00,
2014-07-29 10:15:00,63.9,16.8,29.14,NNW,338,2.2,2.2,16,0.00,,,0.12,VWS V14.01,2014-07-29 14:15:00,
2014-07-29 10:20:00,65.5,16.6,29.14,NW,315,2.2,2.2,15,0.00,,,0.12,VWS V14.01,2014-07-29 14:20:00,
2014-07-29 10:25:00,66.9,17.8,29.14,NW,315,1.3,1.3,15,0.00,,,0.12,VWS V14.01,2014-07-29 14:25:00,
2014-07-29 10:30:00,68.7,19.2,29.14,WNW,292,3.4,3.4,15,0.00,,,0.12,VWS V14.01,2014-07-29 14:30:00,
2014-07-29 10:35:00,68.4,19.0,29.14,North,0,4.0,4.3,15,0.00,,,0.12,VWS V14.01,2014-07-29 14:35:00,
2014-07-29 10:40:00,68.0,18.7,29.14,WNW,292,2.5,2.5,15,0.00,,,0.12,VWS V14.01,2014-07-29 14:40:00,
2014-07-29 10:45:00,68.9,19.4,29.17,NNE,22,3.4,3.4,15,0.00,,,0.12,VWS V14.01,2014-07-29 14:45:00,
2014-07-29 10:50:00,68.9,19.4,29.17,NE,45,4.9,5.4,15,0.00,,,0.12,VWS V14.01,2014-07-29 14:50:00,
2014-07-29 10:55:00,68.7,19.2,29.17,NW,315,2.2,2.9,15,0.00,,,0.12,VWS V14.01,2014-07-29 14:55:00,
2014-07-29 11:00:00,68.5,19.1,29.17,North,0,2.0,2.7,15,0.00,,,0.12,VWS V14.01,2014-07-29 15:00:00,
2014-07-29 11:05:00,68.2,18.8,29.17,NNE,22,3.8,4.9,15,0.00,,,0.12,VWS V14.01,2014-07-29 15:05:00,
2014-07-29 11:10:00,68.0,18.7,29.17,ENE,68,3.8,4.3,15,0.05,,,0.17,VWS V14.01,2014-07-29 15:10:00,
2014-07-29 11:15:00,67.1,17.9,29.17,NE,45,2.0,7.4,15,0.05,,,0.17,VWS V14.01,2014-07-29 15:15:00,
2014-07-29 11:20:00,68.2,18.8,29.17,NNE,22,4.3,4.3,15,0.05,,,0.17,VWS V14.01,2014-07-29 15:20:00,
2014-07-29 11:25:00,69.6,20.0,29.17,WSW,248,1.3,2.2,15,0.05,,,0.17,VWS V14.01,2014-07-29 15:25:00,
2014-07-29 11:30:00,70.3,18.9,29.20,NE,45,3.8,4.0,14,0.05,,,0.17,VWS V14.01,2014-07-29 15:30:00,
2014-07-29 11:35:00,70.2,18.8,29.20,WNW,292,2.9,3.4,14,0.05,,,0.17,VWS V14.01,2014-07-29 15:35:00,
2014-07-29 11:40:00,69.3,19.7,29.20,SW,225,1.3,4.9,15,0.05,,,0.17,VWS V14.01,2014-07-29 15:40:00,
2014-07-29 11:45:00,69.3,19.7,29.20,NW,315,1.3,3.4,15,0.05,,,0.00,VWS V14.01,2014-07-29 15:45:00,
2014-07-29 11:50:00,70.3,18.9,29.20,WSW,248,3.1,3.1,14,0.05,,,0.17,VWS V14.01,2014-07-29 15:50:00,
2014-07-29 11:55:00,70.7,19.2,29.20,NNE,22,2.7,2.7,14,0.05,,,0.17,VWS V14.01,2014-07-29 15:55:00,
2014-07-29 12:00:00,71.1,19.5,29.20,WNW,292,2.5,2.9,14,0.05,,,0.17,VWS V14.01,2014-07-29 16:00:00,
2014-07-29 12:05:00,71.8,20.1,29.20,SW,225,2.7,2.9,14,0.05,,,0.17,VWS V14.01,2014-07-29 16:05:00,
2014-07-29 12:10:00,71.6,19.9,29.20,WSW,248,1.1,2.0,14,0.05,,,0.17,VWS V14.01,2014-07-29 16:10:00,
2014-07-29 12:15:00,71.2,19.6,29.20,WSW,248,3.4,3.4,14,0.00,,,0.17,VWS V14.01,2014-07-29 16:15:00,
2014-07-29 12:20:00,72.3,20.5,29.20,SW,225,2.9,2.9,14,0.00,,,0.17,VWS V14.01,2014-07-29 16:20:00,
2014-07-29 12:25:00,72.7,20.8,29.20,West,270,3.1,3.6,14,0.00,,,0.17,VWS V14.01,2014-07-29 16:25:00,
2014-07-29 12:30:00,71.1,19.5,29.17,NNE,22,6.3,6.3,14,0.00,,,0.17,VWS V14.01,2014-07-29 16:30:00,
2014-07-29 12:35:00,72.1,20.4,29.17,NW,315,1.1,2.9,14,0.00,,,0.17,VWS V14.01,2014-07-29 16:35:00,
2014-07-29 12:40:00,72.3,20.5,29.17,WNW,292,2.0,2.9,14,0.00,,,0.17,VWS V14.01,2014-07-29 16:40:00,
2014-07-29 12:45:00,74.3,20.3,29.20,NNE,22,2.0,4.0,13,0.00,,,0.17,VWS V14.01,2014-07-29 16:45:00,
2014-07-29 12:50:00,74.8,20.7,29.20,NW,315,2.2,2.5,13,0.00,,,0.17,VWS V14.01,2014-07-29 16:50:00,
2014-07-29 12:55:00,74.8,20.7,29.20,WSW,248,3.4,3.4,13,0.00,,,0.17,VWS V14.01,2014-07-29 16:55:00,
2014-07-29 13:00:00,75.4,21.2,29.17,ESE,112,1.6,2.0,13,0.00,,,0.17,VWS V14.01,2014-07-29 17:00:00,
2014-07-29 13:05:00,75.6,21.3,29.17,SSE,158,1.3,2.7,13,0.00,,,0.17,VWS V14.01,2014-07-29 17:05:00,
2014-07-29 13:10:00,76.6,22.1,29.17,WSW,248,2.7,3.1,13,0.00,,,0.17,VWS V14.01,2014-07-29 17:10:00,
2014-07-29 13:15:00,74.7,20.6,29.17,WNW,292,1.6,2.9,13,0.00,,,0.17,VWS V14.01,2014-07-29 17:15:00,
2014-07-29 13:20:00,76.5,22.0,29.17,NNW,338,2.7,3.6,13,0.00,,,0.17,VWS V14.01,2014-07-29 17:20:00,
2014-07-29 13:25:00,75.9,21.6,29.17,NE,45,3.1,6.0,13,0.00,,,0.17,VWS V14.01,2014-07-29 17:25:00,
2014-07-29 13:30:00,76.5,22.0,29.17,North,0,2.5,3.4,13,0.00,,,0.17,VWS V14.01,2014-07-29 17:30:00,
2014-07-29 13:35:00,78.1,23.3,29.17,SSW,202,2.7,2.7,13,0.00,,,0.17,VWS V14.01,2014-07-29 17:35:00,
2014-07-29 13:40:00,78.1,23.3,29.17,ENE,68,2.5,3.4,13,0.00,,,0.17,VWS V14.01,2014-07-29 17:40:00,
2014-07-29 13:45:00,77.5,22.9,29.17,East,90,2.9,4.0,13,0.00,,,0.17,VWS V14.01,2014-07-29 17:45:00,
2014-07-29 13:50:00,79.2,22.2,29.17,WNW,292,2.0,2.9,12,0.00,,,0.17,VWS V14.01,2014-07-29 17:50:00,
2014-07-29 13:55:00,81.1,23.8,29.17,WNW,292,1.6,2.0,12,0.00,,,0.17,VWS V14.01,2014-07-29 17:55:00,
2014-07-29 14:00:00,79.3,22.4,29.17,NNE,22,2.2,4.9,12,0.00,,,0.17,VWS V14.01,2014-07-29 18:00:00,
2014-07-29 14:05:00,81.3,23.9,29.17,WNW,292,2.2,3.4,12,0.00,,,0.17,VWS V14.01,2014-07-29 18:05:00,
2014-07-29 14:10:00,81.5,24.0,29.17,SSW,202,3.1,3.1,12,0.00,,,0.17,VWS V14.01,2014-07-29 18:10:00,
2014-07-29 14:15:00,82.2,24.6,29.17,WSW,248,2.0,2.5,12,0.00,,,0.17,VWS V14.01,2014-07-29 18:15:00,
2014-07-29 14:20:00,81.7,24.2,29.17,WNW,292,2.2,2.2,12,0.00,,,0.17,VWS V14.01,2014-07-29 18:20:00,
2014-07-29 14:25:00,81.3,23.9,29.17,NNW,338,4.3,4.3,12,0.00,,,0.17,VWS V14.01,2014-07-29 18:25:00,
2014-07-29 14:30:00,80.8,23.5,29.17,South,180,1.1,2.0,12,0.00,,,0.17,VWS V14.01,2014-07-29 18:30:00,
2014-07-29 14:35:00,81.5,24.0,29.17,West,270,1.1,2.5,12,0.00,,,0.17,VWS V14.01,2014-07-29 18:35:00,
2014-07-29 14:40:00,81.5,24.0,29.17,NW,315,1.3,1.6,12,0.00,,,0.17,VWS V14.01,2014-07-29 18:40:00,
2014-07-29 14:45:00,82.4,22.7,29.14,WSW,248,3.4,3.4,11,0.00,,,0.17,VWS V14.01,2014-07-29 18:45:00,
2014-07-29 14:50:00,83.1,23.2,29.14,NNE,22,3.1,3.1,11,0.00,,,0.17,VWS V14.01,2014-07-29 18:50:00,
2014-07-29 14:55:00,81.1,23.8,29.14,North,0,6.0,6.0,12,0.00,,,0.17,VWS V14.01,2014-07-29 18:55:00,
2014-07-29 15:00:00,81.9,24.3,29.17,WNW,292,2.7,3.4,12,0.00,,,0.17,VWS V14.01,2014-07-29 19:00:00,
2014-07-29 15:05:00,83.1,23.2,29.17,SSW,202,1.1,2.0,11,0.00,,,0.17,VWS V14.01,2014-07-29 19:05:00,
2014-07-29 15:10:00,82.6,22.8,29.17,ESE,112,2.2,5.6,11,0.00,,,0.17,VWS V14.01,2014-07-29 19:10:00,
2014-07-29 15:15:00,80.4,23.2,29.17,SW,225,2.0,3.8,12,0.00,,,0.17,VWS V14.01,2014-07-29 19:15:00,
2014-07-29 15:20:00,81.0,23.6,29.17,NW,315,1.6,2.2,12,0.00,,,0.17,VWS V14.01,2014-07-29 19:20:00,
2014-07-29 15:25:00,83.7,23.6,29.17,NW,315,2.7,3.8,11,0.00,,,0.17,VWS V14.01,2014-07-29 19:25:00,
2014-07-29 15:30:00,83.8,23.8,29.17,NNW,338,2.5,3.4,11,0.00,,,0.17,VWS V14.01,2014-07-29 19:30:00,
2014-07-29 15:35:00,81.3,23.9,29.17,NW,315,4.0,4.0,12,0.00,,,0.17,VWS V14.01,2014-07-29 19:35:00,
2014-07-29 15:40:00,83.1,23.2,29.17,West,270,2.2,3.1,11,0.00,,,0.17,VWS V14.01,2014-07-29 19:40:00,
2014-07-29 15:45:00,84.0,23.9,29.17,NNW,338,0.9,2.0,11,0.00,,,0.17,VWS V14.01,2014-07-29 19:45:00,
2014-07-29 15:50:00,82.6,22.8,29.17,SSW,202,1.3,2.9,11,0.00,,,0.17,VWS V14.01,2014-07-29 19:50:00,
2014-07-29 15:55:00,84.2,24.0,29.17,SSW,202,2.5,2.5,11,0.00,,,0.17,VWS V14.01,2014-07-29 19:55:00,
2014-07-29 16:00:00,84.6,24.3,29.17,ENE,68,1.1,2.9,11,0.00,,,0.17,VWS V14.01,2014-07-29 20:00:00,
2014-07-29 16:05:00,85.1,24.7,29.17,WNW,292,1.3,1.3,11,0.00,,,0.17,VWS V14.01,2014-07-29 20:05:00,
2014-07-29 16:10:00,85.6,25.2,29.17,SW,225,2.5,2.7,11,0.00,,,0.17,VWS V14.01,2014-07-29 20:10:00,
2014-07-29 16:15:00,83.3,23.4,29.17,NW,315,1.6,3.1,11,0.00,,,0.17,VWS V14.01,2014-07-29 20:15:00,
2014-07-29 16:20:00,79.3,22.4,29.17,NNE,22,2.0,2.7,12,0.00,,,0.17,VWS V14.01,2014-07-29 20:20:00,
2014-07-29 16:25:00,78.4,23.6,29.17,NNW,338,0.0,2.2,13,0.00,,,0.17,VWS V14.01,2014-07-29 20:25:00,
2014-07-29 16:30:00,80.8,23.5,29.14,NNW,338,3.6,3.8,12,0.00,,,0.17,VWS V14.01,2014-07-29 20:30:00,
2014-07-29 16:35:00,80.6,23.4,29.14,North,0,1.3,2.5,12,0.00,,,0.17,VWS V14.01,2014-07-29 20:35:00,
2014-07-29 16:40:00,78.3,23.4,29.14,WNW,292,3.1,3.1,13,0.00,,,0.17,VWS V14.01,2014-07-29 20:40:00,
2014-07-29 16:45:00,78.1,23.3,29.17,NW,315,2.5,3.1,13,0.00,,,0.00,VWS V14.01,2014-07-29 20:45:00,
2014-07-29 16:50:00,77.7,23.0,29.17,ESE,112,1.1,3.4,13,0.00,,,0.17,VWS V14.01,2014-07-29 20:50:00,
2014-07-29 16:55:00,78.1,23.3,29.17,WSW,248,2.7,2.7,13,0.00,,,0.17,VWS V14.01,2014-07-29 20:55:00,
2014-07-29 17:00:00,77.2,22.6,29.17,WSW,248,3.6,3.6,13,0.00,,,0.17,VWS V14.01,2014-07-29 21:00:00,
2014-07-29 17:05:00,76.1,21.7,29.17,WSW,248,2.7,4.0,13,0.00,,,0.17,VWS V14.01,2014-07-29 21:05:00,
2014-07-29 17:10:00,76.8,22.3,29.17,SW,225,2.0,3.8,13,0.00,,,0.17,VWS V14.01,2014-07-29 21:10:00,
2014-07-29 17:15:00,77.0,22.4,29.14,NW,315,1.6,2.0,13,0.00,,,0.17,VWS V14.01,2014-07-29 21:15:00,
2014-07-29 17:20:00,75.7,21.5,29.14,NNW,338,1.6,2.2,13,0.00,,,0.17,VWS V14.01,2014-07-29 21:20:00,
2014-07-29 17:25:00,74.5,20.5,29.14,WNW,292,2.0,4.3,13,0.00,,,0.17,VWS V14.01,2014-07-29 21:25:00,
2014-07-29 17:30:00,75.6,21.3,29.14,WSW,248,1.1,2.0,13,0.00,,,0.17,VWS V14.01,2014-07-29 21:30:00,
2014-07-29 17:35:00,75.0,20.9,29.14,NNE,22,2.0,2.7,13,0.00,,,0.17,VWS V14.01,2014-07-29 21:35:00,
2014-07-29 17:40:00,74.8,20.7,29.14,ENE,68,4.9,4.9,13,0.00,,,0.17,VWS V14.01,2014-07-29 21:40:00,
2014-07-29 17:45:00,75.0,20.9,29.14,WSW,248,1.6,3.1,13,0.00,,,0.17,VWS V14.01,2014-07-29 21:45:00,
2014-07-29 17:50:00,74.7,20.6,29.14,NW,315,2.5,2.5,13,0.00,,,0.17,VWS V14.01,2014-07-29 21:50:00,
2014-07-29 17:55:00,74.7,20.6,29.14,WNW,292,2.2,2.2,13,0.00,,,0.17,VWS V14.01,2014-07-29 21:55:00,
2014-07-29 18:00:00,74.7,20.6,29.14,SW,225,0.0,0.9,13,0.00,,,0.17,VWS V14.01,2014-07-29 22:00:00,
2014-07-29 18:05:00,74.5,20.5,29.14,WSW,248,2.7,3.6,13,0.00,,,0.17,VWS V14.01,2014-07-29 22:05:00,
2014-07-29 18:10:00,74.3,20.3,29.14,WNW,292,0.0,2.2,13,0.00,,,0.17,VWS V14.01,2014-07-29 22:10:00,
2014-07-29 18:15:00,73.8,19.9,29.14,NW,315,2.5,3.1,13,0.00,,,0.17,VWS V14.01,2014-07-29 22:15:00,
2014-07-29 18:20:00,73.0,21.1,29.14,WNW,292,0.0,0.9,14,0.00,,,0.17,VWS V14.01,2014-07-29 22:20:00,
2014-07-29 18:25:00,72.7,20.8,29.14,WSW,248,0.0,2.0,14,0.00,,,0.17,VWS V14.01,2014-07-29 22:25:00,
2014-07-29 18:30:00,72.7,20.8,29.14,NW,315,1.1,2.7,14,0.00,,,0.17,VWS V14.01,2014-07-29 22:30:00,
2014-07-29 18:35:00,72.1,20.4,29.14,NNW,338,0.0,0.0,14,0.00,,,0.17,VWS V14.01,2014-07-29 22:35:00,
2014-07-29 18:40:00,72.1,20.4,29.14,SW,225,2.5,2.5,14,0.00,,,0.17,VWS V14.01,2014-07-29 22:40:00,
2014-07-29 18:45:00,72.1,20.4,29.14,NW,315,0.0,2.0,14,0.00,,,0.17,VWS V14.01,2014-07-29 22:45:00,
2014-07-29 18:50:00,72.1,20.4,29.14,SW,225,2.2,2.5,14,0.00,,,0.17,VWS V14.01,2014-07-29 22:50:00,
2014-07-29 18:55:00,72.1,20.4,29.14,WSW,248,1.6,1.6,14,0.00,,,0.17,VWS V14.01,2014-07-29 22:55:00,
2014-07-29 19:00:00,72.3,20.5,29.14,SSW,202,1.6,1.6,14,0.00,,,0.17,VWS V14.01,2014-07-29 23:00:00,
2014-07-29 19:05:00,72.1,20.4,29.14,SW,225,0.0,1.6,14,0.00,,,0.17,VWS V14.01,2014-07-29 23:05:00,
2014-07-29 19:10:00,72.1,20.4,29.14,SW,225,0.0,0.0,14,0.00,,,0.17,VWS V14.01,2014-07-29 23:10:00,
2014-07-29 19:15:00,71.8,20.1,29.14,WNW,292,0.0,0.0,14,0.00,,,0.17,VWS V14.01,2014-07-29 23:15:00,
2014-07-29 19:20:00,71.6,19.9,29.14,South,180,0.0,0.0,14,0.00,,,0.17,VWS V14.01,2014-07-29 23:20:00,
2014-07-29 19:25:00,71.4,19.8,29.14,SW,225,2.0,2.0,14,0.00,,,0.17,VWS V14.01,2014-07-29 23:25:00,
2014-07-29 19:30:00,71.1,19.5,29.14,South,180,0.0,0.0,14,0.00,,,0.17,VWS V14.01,2014-07-29 23:30:00,
2014-07-29 19:35:00,70.9,19.4,29.14,WSW,248,1.3,1.3,14,0.00,,,0.17,VWS V14.01,2014-07-29 23:35:00,
2014-07-29 19:40:00,70.5,19.1,29.14,SW,225,1.3,2.0,14,0.00,,,0.17,VWS V14.01,2014-07-29 23:40:00,
2014-07-29 19:45:00,70.3,18.9,29.14,SW,225,1.3,1.3,14,0.00,,,0.17,VWS V14.01,2014-07-29 23:45:00,
2014-07-29 19:50:00,70.2,18.8,29.14,SW,225,0.0,0.0,14,0.00,,,0.17,VWS V14.01,2014-07-29 23:50:00,
2014-07-29 19:55:00,69.8,18.5,29.14,SW,225,1.3,1.6,14,0.00,,,0.17,VWS V14.01,2014-07-29 23:55:00,
2014-07-29 20:00:00,69.3,19.7,29.14,SSW,202,0.9,1.3,15,0.00,,,0.17,VWS V14.01,2014-07-30 00:00:00,
2014-07-29 20:05:00,68.9,19.4,29.14,SW,225,1.3,2.0,15,0.00,,,0.17,VWS V14.01,2014-07-30 00:05:00,
2014-07-29 20:10:00,68.4,19.0,29.14,SSW,202,1.1,1.3,15,0.00,,,0.17,VWS V14.01,2014-07-30 00:10:00,
2014-07-29 20:15:00,68.0,18.7,29.14,SSW,202,0.0,0.0,15,0.00,,,0.17,VWS V14.01,2014-07-30 00:15:00,
2014-07-29 20:20:00,67.5,18.2,29.14,SSW,202,0.0,0.0,15,0.00,,,0.17,VWS V14.01,2014-07-30 00:20:00,
2014-07-29 20:25:00,66.9,17.8,29.14,SSW,202,0.0,0.0,15,0.00,,,0.17,VWS V14.01,2014-07-30 00:25:00,
2014-07-29 20:30:00,66.4,17.4,29.14,SSW,202,0.0,0.0,15,0.00,,,0.17,VWS V14.01,2014-07-30 00:30:00,
2014-07-29 20:35:00,66.0,17.1,29.14,SSW,202,0.0,0.0,15,0.00,,,0.17,VWS V14.01,2014-07-30 00:35:00,